Weather History for KOTM - April, 2013

Change the Weather History Date:

Thursday, April 18, 2013

  Actual Average Record
Temperature  
Mean Temperature 45 °F 52 °F  
Max Temperature 55 °F 63 °F 87 °F (1985)
Min Temperature 35 °F 40 °F 19 °F (1983)
Degree Days  
Heating Degree Days 20 14  
Month to date heating degree days 345 299  
Since 1 July heating degree days 5883 5995  
Cooling Degree Days 0 0  
Month to date cooling degree days 0 0  
Year to date cooling degree days 0 1  
Moisture  
Dew Point 43 °F    
Average Humidity 88    
Maximum Humidity 100    
Minimum Humidity 75    
Precipitation  
Precipitation 1.01 in 0.12 in 1.26 in (1927)
Month to date precipitation 8.46 1.84  
Year to date precipitation 13.81 6.26  
Sea Level Pressure  
Sea Level Pressure 29.59 in    
Wind  
Wind Speed 16 mph (WNW)    
Max Wind Speed 30 mph    
Max Gust Speed 39 mph    
Visibility 6 miles    
Events Rain , Thunderstorm    
T = Trace of Precipitation, MM = Missing Value Source: NWS Daily Summary

Daily Weather History Graph

Daily Weather History Graph

Search for Another Location

Airport or City:

Trip Planner

Search our weather history database for the weather conditions in past years. The results will help you decide how hot, cold, wet, or windy it might be!

Date:

Astronomy

Apr. 18, 2013 Rise Set
Actual Time 6:25 AM CDT 7:53 PM CDT
Civil Twilight 5:56 AM CDT 8:22 PM CDT
Nautical Twilight 5:22 AM CDT 8:56 PM CDT
Astronomical Twilight 4:45 AM CDT 9:33 PM CDT
Moon 12:37 PM CDT (4/18) 2:08 AM CDT (4/18)
Length of Visible Light 14h 25m
Length of Day
13h 27m
First Quarter, 52% of the Moon is Illuminated
Apr 18
First Quarter
Apr 25
Full
May 2
Last Quarter
May 9
New
May 17
First Quarter

Hourly Weather History & Observations

Time (CDT) Temp. Windchill Dew Point Humidity Pressure Visibility Wind Dir Wind Speed Gust Speed Precip Events Conditions
12:37 AM 51.8 °F - 48.2 °F 88% 29.67 in 6.0 mi East 11.5 mph - 0.10 in Rain , Thunderstorm Light Thunderstorms and Rain
12:50 AM 51.8 °F - 48.2 °F 88% 29.64 in 2.5 mi East 18.4 mph 26.5 mph 0.20 in Rain Heavy Rain
12:53 AM 51.1 °F - 48.9 °F 92% 29.65 in 2.5 mi East 19.6 mph - 0.22 in Rain Heavy Rain
1:04 AM 51.8 °F - 48.2 °F 88% 29.66 in 4.0 mi ESE 16.1 mph 24.2 mph 0.04 in Rain Rain
1:13 AM 51.8 °F - 48.2 °F 88% 29.66 in 4.0 mi ESE 19.6 mph - 0.07 in Rain , Thunderstorm Thunderstorms and Rain
1:28 AM 51.8 °F - 50.0 °F 94% 29.68 in 3.0 mi SE 13.8 mph - 0.17 in Rain Heavy Rain
1:53 AM 52.0 °F - 51.1 °F 97% 29.63 in 5.0 mi East 17.3 mph 23.0 mph 0.30 in Rain Rain
2:01 AM 51.8 °F - 51.8 °F 100% 29.64 in 4.0 mi ESE 13.8 mph 24.2 mph 0.04 in Rain Heavy Rain
2:29 AM 53.6 °F - 51.8 °F 94% 29.61 in 4.0 mi East 16.1 mph - 0.21 in Rain , Thunderstorm Heavy Thunderstorms and Rain
2:44 AM 53.6 °F - 51.8 °F 94% 29.57 in 7.0 mi East 19.6 mph - 0.25 in Rain Rain
2:53 AM 53.1 °F - 52.0 °F 96% 29.58 in 9.0 mi East 17.3 mph - 0.26 in Rain Light Rain
3:21 AM 53.6 °F - 51.8 °F 94% 29.56 in 10.0 mi East 18.4 mph 23.0 mph 0.01 in   Overcast
3:51 AM 53.6 °F - 53.6 °F 100% 29.57 in 4.0 mi Calm Calm - 0.04 in Rain , Thunderstorm Rain
3:53 AM 54.0 °F - 53.1 °F 97% 29.58 in 3.0 mi WNW 4.6 mph - 0.05 in Rain , Thunderstorm Heavy Rain
4:00 AM 53.6 °F - 51.8 °F 94% 29.58 in 2.5 mi NW 11.5 mph - 0.02 in Rain Rain
4:28 AM 55.4 °F - 53.6 °F 94% 29.59 in 3.0 mi Calm Calm - 0.19 in Rain Rain
4:36 AM 53.6 °F - 51.8 °F 94% 29.60 in 3.0 mi West 9.2 mph - 0.22 in Rain Rain
4:41 AM 50.0 °F - 48.2 °F 94% 29.60 in 2.5 mi NW 11.5 mph - 0.25 in Rain Heavy Rain
4:51 AM 50.0 °F - 48.2 °F 94% 29.59 in 3.0 mi NW 4.6 mph - 0.29 in Rain Rain
4:53 AM 48.9 °F - 48.0 °F 97% 29.60 in 3.0 mi NNW 3.5 mph - 0.30 in Rain Rain
5:08 AM 48.2 °F - 48.2 °F 100% 29.59 in 3.0 mi WNW 3.5 mph - 0.04 in Rain Rain
5:38 AM 46.4 °F 40.4 °F 44.6 °F 93% 29.59 in 9.0 mi NW 13.8 mph - 0.06 in Rain Light Rain
5:53 AM 46.0 °F 39.0 °F 44.1 °F 93% 29.60 in 10.0 mi NNW 17.3 mph - 0.06 in Rain Light Rain
6:24 AM 44.6 °F 37.4 °F 42.8 °F 93% 29.58 in 10.0 mi North 16.1 mph - 0.00 in   Overcast
6:53 AM 44.1 °F 37.4 °F 43.0 °F 96% 29.59 in 10.0 mi North 13.8 mph - 0.00 in   Overcast
7:01 AM 44.6 °F 37.8 °F 42.8 °F 93% 29.58 in 10.0 mi North 15.0 mph - N/A   Overcast
7:21 AM 44.6 °F 37.8 °F 42.8 °F 93% 29.57 in 7.0 mi North 15.0 mph - N/A   Overcast
7:53 AM 44.1 °F 38.1 °F 42.1 °F 93% 29.58 in 9.0 mi NNE 11.5 mph - N/A   Overcast
8:53 AM 45.0 °F 40.6 °F 44.1 °F 97% 29.56 in 10.0 mi NE 8.1 mph - N/A   Overcast
9:53 AM 46.0 °F 41.0 °F 44.1 °F 93% 29.52 in 7.0 mi East 10.4 mph - N/A   Overcast
10:31 AM 46.4 °F 40.7 °F 44.6 °F 93% 29.47 in 1.8 mi East 12.7 mph - 0.00 in Rain Light Rain
10:53 AM 46.9 °F - 46.0 °F 97% 29.47 in 1.0 mi ESE 9.2 mph - 0.00 in Rain Light Rain
11:02 AM 48.2 °F - 46.4 °F 93% 29.45 in 0.8 mi ESE 10.4 mph - 0.00 in Rain Light Rain
11:42 AM 50.0 °F - 50.0 °F 100% 29.46 in 1.2 mi SSW 8.1 mph - 0.00 in   Overcast
11:53 AM 48.9 °F - 48.0 °F 97% 29.49 in 0.8 mi West 15.0 mph - 0.03 in Rain Heavy Rain
11:57 AM 46.4 °F 39.5 °F 46.4 °F 100% 29.48 in 1.0 mi West 17.3 mph - 0.01 in Rain Rain
12:13 PM 44.6 °F 37.4 °F 44.6 °F 100% 29.46 in 2.5 mi WNW 16.1 mph - 0.02 in Rain Light Rain
12:29 PM 44.6 °F 36.9 °F 42.8 °F 93% 29.49 in 4.0 mi West 18.4 mph 27.6 mph 0.02 in Rain Light Rain
12:48 PM 42.8 °F 34.5 °F 41.0 °F 93% 29.49 in 2.0 mi WNW 18.4 mph 25.3 mph 0.02 in Rain Light Rain
12:53 PM 42.1 °F 33.3 °F 41.0 °F 96% 29.50 in 1.8 mi WNW 19.6 mph 27.6 mph 0.02 in Rain Light Rain
1:07 PM 42.8 °F 34.5 °F 41.0 °F 93% 29.49 in 2.0 mi WNW 18.4 mph 25.3 mph 0.00 in Rain Light Rain
1:43 PM 42.8 °F 35.4 °F 39.2 °F 87% 29.52 in 5.0 mi West 15.0 mph 24.2 mph 0.01 in   Overcast
1:53 PM 42.1 °F 33.3 °F 39.0 °F 89% 29.52 in 10.0 mi WNW 19.6 mph 26.5 mph 0.01 in   Overcast
2:12 PM 42.8 °F 34.3 °F 37.4 °F 81% 29.52 in 10.0 mi West 19.6 mph 26.5 mph N/A   Overcast
2:53 PM 42.1 °F 33.9 °F 37.9 °F 85% 29.55 in 10.0 mi West 17.3 mph - N/A   Overcast
3:45 PM 41.0 °F 31.9 °F 35.6 °F 81% 29.55 in 10.0 mi West 19.6 mph 26.5 mph N/A   Overcast
3:53 PM 41.0 °F 32.5 °F 36.0 °F 82% 29.56 in 10.0 mi West 17.3 mph 26.5 mph N/A   Overcast
4:11 PM 42.8 °F 34.3 °F 35.6 °F 76% 29.56 in 10.0 mi West 19.6 mph 27.6 mph N/A   Overcast
4:53 PM 41.0 °F 31.6 °F 35.1 °F 79% 29.59 in 10.0 mi West 20.7 mph 28.8 mph N/A   Overcast
5:53 PM 39.0 °F 29.6 °F 33.1 °F 79% 29.63 in 10.0 mi West 18.4 mph 29.9 mph 0.00 in Rain Light Rain
6:03 PM 39.2 °F 29.3 °F 33.8 °F 81% 29.62 in 10.0 mi West 20.7 mph 29.9 mph 0.00 in   Overcast
6:21 PM 37.4 °F 25.9 °F 32.0 °F 81% 29.63 in 10.0 mi West 25.3 mph 32.2 mph 0.00 in   Overcast
6:45 PM 37.4 °F 25.9 °F 30.2 °F 75% 29.64 in 10.0 mi West 25.3 mph 33.4 mph 0.00 in   Overcast
6:53 PM 37.9 °F 26.8 °F 30.0 °F 73% 29.65 in 10.0 mi West 24.2 mph 32.2 mph 0.00 in   Overcast
7:53 PM 37.0 °F 26.4 °F 30.0 °F 76% 29.68 in 10.0 mi West 20.7 mph 29.9 mph N/A   Overcast
8:53 PM 37.0 °F 27.7 °F 30.0 °F 76% 29.72 in 10.0 mi West 16.1 mph 27.6 mph N/A   Overcast
9:53 PM 37.0 °F 27.4 °F 30.0 °F 76% 29.72 in 10.0 mi West 17.3 mph 26.5 mph N/A   Overcast
10:53 PM 36.0 °F 25.6 °F 28.9 °F 76% 29.71 in 10.0 mi West 18.4 mph 28.8 mph N/A   Overcast
11:08 PM 35.6 °F 25.2 °F 28.4 °F 75% 29.70 in 10.0 mi West 18.4 mph 29.9 mph N/A   Overcast
11:46 PM 35.6 °F 25.5 °F 28.4 °F 75% 29.69 in 10.0 mi West 17.3 mph 28.8 mph N/A   Overcast
11:53 PM 36.0 °F 25.3 °F 28.9 °F 76% 29.70 in 10.0 mi West 19.6 mph 27.6 mph N/A   Overcast